Regional Weather Roundup
Issued by NWS

Home | Current Version | Previous Version | Graphics & Text | Print | Product List | Glossary Off
Versions: 1 2 3 4 5 6 7 8 9 10 11 12 13 14 15 16 17 18 19 20 21 22 23 24 25 26 27 28 29 30 31 32 33 34 35 36 37 38 39 40 41 42 43 44 45 46 47 48 49 50

000
ASUS43 KBIS 181110
RWRND

NORTH DAKOTA REGIONAL WEATHER ROUNDUP
NATIONAL WEATHER SERVICE BISMARCK ND
500 AM CST SAT NOV 18 2017

NOTE: "FAIR" INDICATES FEW OR NO CLOUDS BELOW 12,000 FEET WITH NO
SIGNIFICANT WEATHER AND/OR OBSTRUCTIONS TO VISIBILITY.


NDZ001>003-009>011-017-181200-
NORTHWEST NORTH DAKOTA

CITY           SKY/WX    TMP DP  RH WIND       PRES   REMARKS
WILLISTON      CLEAR     11   7  84 W10       30.06R WCI  -3
MINOT          CLOUDY    16   9  74 W15       29.97R WCI   1
MINOT AFB      CLOUDY    15   9  78 NW16      29.96R WCI  -1
$$

NDZ018>021-031>035-040>046-181200-
SOUTHWEST NORTH DAKOTA

CITY           SKY/WX    TMP DP  RH WIND       PRES   REMARKS
BISMARCK       MOCLDY    23  18  81 NW8       29.98R WCI  14
DICKINSON      PTCLDY    14   9  80 NW10      29.98R WCI   1
GARRISON         N/A     13   9  84 NW12      29.99R WCI  -1
HETTINGER ARPT CLEAR     24  20  84 N17       29.98R WCI  11
$$

NDZ004>008-012>016-024-026-027-054-181200-
NORTHEAST NORTH DAKOTA

CITY           SKY/WX    TMP DP  RH WIND       PRES   REMARKS
GRAND FORKS    MOCLDY    17  12  80 NW10      29.89R WCI   5
GRND FRKS AFB  PTCLDY    17   9  73 NW8       29.90R WCI   6
DEVILS LAKE    PTCLDY    14  10  84 W12       29.91R WCI   0
$$

NDZ022-023-025-028>030-036>039-047>053-181200-
SOUTHEAST NORTH DAKOTA

CITY           SKY/WX    TMP DP  RH WIND       PRES   REMARKS
FARGO          CLOUDY    20  16  84 NW8       29.88R WCI  10
JAMESTOWN      CLOUDY    19  14  81 NW18      29.91R WCI   4
$$





USA.gov is the U.S. government's official web portal to all federal, state and local government web resources and services.